date,time,DOY,Ta_1_1_1,RH_1_1_1,LWin_1_1_1,LWout_1_1_1,SWin_1_1_1,SWout_1_1_1,PPFD_1_1_1,SWC_1_1_1,Ts_1_1_1
[yyyy-mm-dd],[HH:MM],[ddd.ddd],[K],[%],[W+1m-2],[W+1m-2],[W+1m-2],[W+1m-2],[µmol+1m-2s-1],[m+3m-3],[K]
2014-04-05,00:30,95.020,266.56366666666668,88.935666666666677,-9999.0,-9999.0,0.49166666666666659,-3.5249999999999999,-1.63333333333333351E-002,0.30999999999999989,273.31033333333340
2014-04-05,01:00,95.041,266.49866666666662,86.947333333333333,-9999.0,-9999.0,0.59699999999999998,-3.7496666666666676,-6.00000000000000012E-003,0.30999999999999989,273.30933333333343
2014-04-05,01:30,95.062,266.43700000000001,85.631000000000014,-9999.0,-9999.0,0.63500000000000001,-3.7073333333333331,-1.03333333333333350E-002,0.30999999999999989,273.31033333333329
2014-04-05,02:00,95.083,266.29499999999996,85.928333333333327,-9999.0,-9999.0,0.50366666666666671,-3.7476666666666660,-1.29999999999999994E-002,0.30999999999999989,273.31233333333336
2014-04-05,02:30,95.104,265.90700000000004,88.127666666666670,-9999.0,-9999.0,0.35266666666666674,-3.4143333333333339,-1.00000000000000002E-002,0.30999999999999989,273.31000000000012
2014-04-05,03:00,95.124,265.77433333333340,87.851666666666702,-9999.0,-9999.0,0.28666666666666668,-3.5330000000000004,-1.33333333333333377E-002,0.30999999999999989,273.31000000000012
2014-04-05,03:30,95.145,265.56733333333329,89.698333333333323,-9999.0,-9999.0,0.26500000000000001,-3.3166666666666660,-2.40000000000000074E-002,0.30999999999999989,273.31166666666678
2014-04-05,04:00,95.166,265.81099999999992,88.822666666666677,-9999.0,-9999.0,0.25499999999999995,-3.4743333333333339,-2.20000000000000057E-002,0.30999999999999989,273.31100000000009
2014-04-05,04:30,95.187,265.91733333333332,88.504999999999981,-9999.0,-9999.0,0.39766666666666678,-3.2856666666666667,-1.70000000000000047E-002,0.30999999999999989,273.30933333333343
2014-04-05,05:00,95.208,266.08733333333339,87.234333333333339,-9999.0,-9999.0,0.32899999999999985,-3.3516666666666666,-4.66666666666666792E-003,0.30999999999999989,273.30700000000007
2014-04-05,05:30,95.229,265.35333333333335,89.741666666666660,-9999.0,-9999.0,0.32799999999999996,-1.5143333333333331,2.5469999999999997,0.30999999999999989,273.30933333333343
2014-04-05,06:00,95.249,265.18833333333345,90.472333333333324,-9999.0,-9999.0,9.7086666666666659,39.386666666666663,44.964000000000006,0.30999999999999989,273.30866666666680
2014-04-05,06:30,95.270,265.31633333333338,90.352333333333334,-9999.0,-9999.0,27.641333333333325,118.22699999999999,166.74033333333330,0.30999999999999989,273.31233333333336
2014-04-05,07:00,95.291,265.90066666666672,91.415666666666638,-9999.0,-9999.0,47.322000000000003,232.39766666666665,330.19066666666663,0.30999999999999989,273.31166666666672
2014-04-05,07:30,95.312,266.98000000000008,87.525333333333336,-9999.0,-9999.0,67.514666666666656,332.95833333333331,505.25700000000001,0.30999999999999989,273.31266666666676
2014-04-05,08:00,95.333,268.46700000000004,84.313000000000002,-9999.0,-9999.0,86.714999999999975,411.17699999999991,703.54966666666667,0.30999999999999989,273.31266666666670
2014-04-05,08:30,95.354,270.21866666666676,77.903666666666652,-9999.0,-9999.0,106.91566666666667,478.77033333333333,894.96800000000007,0.30999999999999989,273.31100000000009
2014-04-05,09:00,95.374,271.35333333333335,69.521000000000015,-9999.0,-9999.0,127.83133333333333,533.65099999999984,1070.9016666666666,0.30999999999999989,273.31000000000006
2014-04-05,09:30,95.395,272.25266666666664,63.292333333333346,-9.4763636363636365,-9999.0,146.46400000000003,599.30766666666693,1231.6846666666665,0.30999999999999989,273.31100000000004
2014-04-05,10:00,95.416,273.49166666666667,55.907333333333341,-9.5647826086956531,-9999.0,163.01100000000000,675.97833333333335,1372.0973333333329,0.30999999999999989,273.31066666666680
2014-04-05,10:30,95.437,274.77400000000006,52.296666666666660,-9.7149999999999999,-9999.0,173.79999999999998,759.52966666666657,1490.6133333333335,0.30999999999999989,273.30800000000005
2014-04-05,11:00,95.458,275.04533333333336,51.635000000000005,-8.7145833333333318,-9999.0,180.22200000000001,803.91733333333320,1580.0633333333333,0.30999999999999989,273.31100000000009
2014-04-05,11:30,95.479,275.59700000000004,51.187666666666672,-8.6157692307692297,-9999.0,183.82900000000001,827.99833333333345,1644.3006666666663,0.30999999999999989,273.31233333333336
2014-04-05,12:00,95.499,275.87266666666676,51.457333333333345,-7.9456666666666651,-9999.0,184.23100000000002,837.46499999999980,1675.5943333333335,0.30999999999999989,273.31566666666674
2014-04-05,12:30,95.520,276.12900000000002,52.780333333333338,-7.9959999999999978,-9999.0,179.97166666666669,832.88266666666675,1677.5409999999997,0.30999999999999989,273.31100000000009
2014-04-05,13:00,95.541,276.53133333333335,52.376333333333328,-8.3836666666666666,-9999.0,171.75299999999999,813.06633333333355,1647.9496666666662,0.30999999999999989,273.31233333333341
2014-04-05,13:30,95.562,277.07233333333340,51.825333333333340,-8.8014285714285716,-9999.0,160.87566666666669,783.14300000000003,1591.5463333333328,0.30999999999999989,273.31299999999999
2014-04-05,14:00,95.583,277.60599999999999,51.337333333333348,-9.8233333333333324,-9999.0,145.85766666666666,740.43133333333333,1503.0529999999997,0.30999999999999989,273.31133333333338
2014-04-05,14:30,95.604,277.87700000000007,49.358666666666657,-9.9199999999999999,-9999.0,133.16533333333336,693.27299999999980,1397.9956666666667,0.30999999999999989,273.31300000000005
2014-04-05,15:00,95.624,278.27733333333333,47.489333333333335,-9999.0,-9999.0,117.08866666666667,621.13566666666679,1251.0676666666664,0.30999999999999989,273.30833333333339
2014-04-05,15:30,95.645,278.82066666666668,42.516999999999989,-9999.0,-9999.0,100.19700000000002,545.75833333333344,1093.6296666666667,0.30999999999999989,273.31233333333341
2014-04-05,16:00,95.666,279.06133333333332,39.313000000000002,-9999.0,-9999.0,83.459333333333319,460.05533333333335,914.70266666666669,0.30999999999999989,273.31300000000010
2014-04-05,16:30,95.687,279.10966666666667,36.896666666666668,-9999.0,-9999.0,66.465333333333319,368.80799999999994,725.28666666666686,0.30999999999999989,273.31233333333347
2014-04-05,17:00,95.708,279.13366666666673,36.598666666666659,-9999.0,-9999.0,49.560999999999993,273.76766666666668,530.25166666666655,0.30999999999999989,273.31066666666680
2014-04-05,17:30,95.729,279.01066666666674,36.382999999999996,-9999.0,-9999.0,33.481999999999999,179.68533333333338,342.60399999999998,0.30999999999999989,273.31066666666680
2014-04-05,18:00,95.749,278.76299999999998,38.238333333333344,-9999.0,-9999.0,18.898333333333333,89.818333333333314,170.26100000000002,0.30999999999999989,273.30966666666677
2014-04-05,18:30,95.770,277.63633333333331,45.461333333333322,-9999.0,-9999.0,4.7446666666666655,17.349333333333334,43.112666666666669,0.30999999999999989,273.30866666666680
2014-04-05,19:00,95.791,276.62799999999999,48.443666666666665,-9999.0,-9999.0,0.39333333333333337,-3.4516666666666667,3.0560000000000000,0.30999999999999989,273.31300000000010
2014-04-05,19:30,95.812,276.09266666666667,47.657333333333327,-9999.0,-9999.0,0.23333333333333336,-4.6440000000000001,-1.70000000000000012E-002,0.30999999999999989,273.31400000000008
2014-04-05,20:00,95.833,275.70133333333331,47.997666666666667,-9999.0,-9999.0,0.35200000000000009,-4.3659999999999988,-3.90000000000000208E-002,0.30999999999999989,273.31266666666676
2014-04-05,20:30,95.854,275.40033333333338,49.104333333333322,-9999.0,-9999.0,0.24566666666666667,-4.4153333333333338,-4.10000000000000225E-002,0.30999999999999989,273.31233333333341
2014-04-05,21:00,95.874,274.82166666666666,55.715666666666685,-9999.0,-9999.0,0.13166666666666668,-4.3590000000000000,-5.63333333333333533E-002,0.30999999999999989,273.31333333333345
2014-04-05,21:30,95.895,274.57266666666681,58.565666666666658,-9999.0,-9999.0,0.32900000000000001,-4.2696666666666667,-3.66666666666666877E-002,0.30999999999999989,273.31466666666677
2014-04-05,22:00,95.916,274.35533333333336,60.082999999999991,-9999.0,-9999.0,0.31033333333333341,-4.1916666666666664,-2.96666666666666780E-002,0.30999999999999989,273.31233333333336
2014-04-05,22:30,95.937,274.21866666666665,62.043333333333337,-9999.0,-9999.0,0.33366666666666667,-4.0533333333333337,-3.46666666666666859E-002,0.30999999999999989,273.31266666666670
2014-04-05,23:00,95.958,274.06833333333338,64.191999999999993,-9999.0,-9999.0,0.26500000000000001,-3.8196666666666670,-2.76666666666666762E-002,0.30999999999999989,273.31400000000014
2014-04-05,23:30,95.979,273.97033333333331,65.997666666666674,-9999.0,-9999.0,-2.56666666666666640E-002,-2.6163333333333343,-3.10000000000000067E-002,0.30999999999999989,273.31466666666677
2014-04-06,00:00,96.000,274.46100000000007,65.297333333333327,-9.8585714285714268,-9999.0,-0.10266666666666667,-1.1460000000000001,-3.13333333333333450E-002,0.30999999999999989,273.31866666666667
